Back to catalog

STARLINK-1797

AliveCommunicationsVLEO
NORAD 46698·PAYLOAD·🇺🇸 United States

Launched Oct 18, 2020 from Cape Canaveral Space Force Station

Loading…

Next Passes (next 24 hours)

TLE

FreshSource: CelesTrak SupGP

Epoch: Sep 14, 2026, 13:03 UTC

1 46698C 20073AE  26257.54423611  .00278590  00000+0  69368-3 0  2575
2 46698  53.0304 353.6170 0009705 345.5831 136.3532 15.94863057    17

Track STARLINK-1797 in real time with AllMySat

Download on the App Store